Retour au catalogue

STARLINK-5018

ActifCommunicationsVLEO
NORAD 53929·PAYLOAD·🇺🇸 United States

Lancé Sep 24, 2022 depuis Cape Canaveral Space Force Station

Loading…

Prochains Passages (prochaines 24 heures)

TLE

FraisSource: CelesTrak SupGP

Époque: Sep 15, 2026, 02:38 UTC

1 53929C 22119AV  26258.11020833  .00011387  00000+0  36627-3 0  2588
2 53929  53.1590 172.8826 0001522  84.3267  48.2923 15.31687919    16

Suivez STARLINK-5018 en temps réel avec AllMySat

Download on the App Store